Time,TemperatureF,DewpointF,PressureIn,WindDirection,WindDirectionDegrees,WindSpeedMPH,WindSpeedGustMPH,Humidity,HourlyPrecipIn,Conditions,Clouds,dailyrainin,SoftwareType,DateUTC
2013-10-03 00:24:00,68.0,66.0,30.12,WNW,290,0.0,-999.0,93,-99.99,,,-99.99,,2013-10-03 04:24:00,
2013-10-03 00:53:00,67.0,65.0,30.11,WNW,290,0.0,-999.0,93,-99.99,,,-99.99,,2013-10-03 04:53:00,
2013-10-03 01:23:00,67.0,65.0,30.10,WNW,290,0.0,-999.0,94,-99.99,,,-99.99,,2013-10-03 05:23:00,
2013-10-03 01:43:00,67.0,65.0,30.10,WNW,290,0.0,-999.0,94,-99.99,,,-99.99,,2013-10-03 05:43:00,
2013-10-03 01:52:00,66.0,64.0,30.10,WNW,290,0.0,-999.0,94,-99.99,,,-99.99,,2013-10-03 05:52:00,
2013-10-03 02:12:00,66.0,64.0,30.09,WNW,290,0.0,-999.0,94,-99.99,,,-99.99,,2013-10-03 06:12:00,
2013-10-03 02:22:00,66.0,64.0,30.10,WNW,290,0.0,-999.0,94,-99.99,,,-99.99,,2013-10-03 06:22:00,
2013-10-03 02:42:00,66.0,64.0,30.09,WNW,290,0.0,-999.0,94,-99.99,,,-99.99,,2013-10-03 06:42:00,
2013-10-03 02:52:00,66.0,64.0,30.10,WNW,290,0.0,-999.0,94,-99.99,,,-99.99,,2013-10-03 06:52:00,
2013-10-03 03:11:00,66.0,65.0,30.10,WNW,290,0.0,-999.0,95,-99.99,,,-99.99,,2013-10-03 07:11:00,
2013-10-03 03:22:00,65.0,63.0,30.10,WNW,290,0.0,-999.0,94,-99.99,,,-99.99,,2013-10-03 07:22:00,
2013-10-03 03:52:00,65.0,64.0,30.09,WNW,290,0.0,-999.0,95,-99.99,,,-99.99,,2013-10-03 07:52:00,
2013-10-03 04:12:00,65.0,64.0,30.09,WNW,290,0.0,-999.0,95,-99.99,,,-99.99,,2013-10-03 08:12:00,
2013-10-03 04:22:00,65.0,64.0,30.08,WNW,290,0.0,-999.0,95,-99.99,,,-99.99,,2013-10-03 08:22:00,
2013-10-03 04:42:00,65.0,64.0,30.08,WNW,290,0.0,-999.0,95,-99.99,,,-99.99,,2013-10-03 08:42:00,
2013-10-03 04:52:00,65.0,64.0,30.08,WNW,290,0.0,-999.0,95,-99.99,,,-99.99,,2013-10-03 08:52:00,
2013-10-03 05:22:00,65.0,64.0,30.09,WNW,290,0.0,-999.0,95,-99.99,,,-99.99,,2013-10-03 09:22:00,
2013-10-03 05:53:00,65.0,64.0,30.09,WNW,290,0.0,-999.0,95,-99.99,,,-99.99,,2013-10-03 09:53:00,
2013-10-03 06:23:00,66.0,65.0,30.09,WNW,290,0.0,-999.0,95,-99.99,,,-99.99,,2013-10-03 10:23:00,
2013-10-03 06:52:00,66.0,65.0,30.09,WNW,290,0.0,-999.0,96,-99.99,,,-99.99,,2013-10-03 10:52:00,
2013-10-03 07:12:00,66.0,65.0,30.09,WNW,290,0.0,-999.0,95,-99.99,,,-99.99,,2013-10-03 11:12:00,
2013-10-03 07:23:00,65.0,64.0,30.10,WNW,290,0.0,-999.0,95,-99.99,,,-99.99,,2013-10-03 11:23:00,
2013-10-03 07:52:00,65.0,64.0,30.10,WNW,290,0.0,-999.0,95,-99.99,,,-99.99,,2013-10-03 11:52:00,
2013-10-03 08:22:00,65.0,64.0,30.10,WNW,290,0.0,-999.0,96,-99.99,,,-99.99,,2013-10-03 12:22:00,
2013-10-03 08:52:00,66.0,65.0,30.11,WNW,290,0.0,-999.0,96,-99.99,,,-99.99,,2013-10-03 12:52:00,
2013-10-03 09:11:00,66.0,65.0,30.11,WNW,290,0.0,-999.0,96,-99.99,,,-99.99,,2013-10-03 13:11:00,
2013-10-03 09:22:00,67.0,66.0,30.12,WNW,290,0.0,-999.0,96,-99.99,,,-99.99,,2013-10-03 13:22:00,
2013-10-03 09:52:00,68.0,67.0,30.12,WNW,290,0.0,-999.0,96,-99.99,,,-99.99,,2013-10-03 13:52:00,
2013-10-03 10:22:00,69.0,68.0,30.12,WNW,290,0.0,-999.0,96,-99.99,,,-99.99,,2013-10-03 14:22:00,
2013-10-03 10:52:00,70.0,68.0,30.12,WNW,290,0.0,-999.0,95,-99.99,,,-99.99,,2013-10-03 14:52:00,
2013-10-03 11:11:00,71.0,69.0,30.12,WNW,290,0.0,-999.0,94,-99.99,,,-99.99,,2013-10-03 15:11:00,
2013-10-03 11:22:00,72.0,69.0,30.12,NW,314,0.0,-999.0,90,-99.99,,,-99.99,,2013-10-03 15:22:00,
2013-10-03 11:43:00,73.0,69.0,30.12,NW,314,0.0,-999.0,86,-99.99,,,-99.99,,2013-10-03 15:43:00,
2013-10-03 11:53:00,74.0,69.0,30.12,NNW,327,0.0,-999.0,85,-99.99,,,-99.99,,2013-10-03 15:53:00,
2013-10-03 12:13:00,75.0,69.0,30.12,NNW,327,0.0,-999.0,83,-99.99,,,-99.99,,2013-10-03 16:13:00,
2013-10-03 12:23:00,76.0,69.0,30.12,NNW,329,0.0,-999.0,80,-99.99,,,-99.99,,2013-10-03 16:23:00,
2013-10-03 12:33:00,76.0,69.0,30.12,NNW,329,0.0,-999.0,80,-99.99,,,-99.99,,2013-10-03 16:33:00,
2013-10-03 12:42:00,76.0,69.0,30.12,NNW,329,0.0,-999.0,80,-99.99,,,-99.99,,2013-10-03 16:42:00,
2013-10-03 12:53:00,78.0,68.0,30.11,WNW,287,4.0,-999.0,71,-99.99,,,-99.99,,2013-10-03 16:53:00,
2013-10-03 13:22:00,78.0,67.0,30.10,NW,312,4.0,-999.0,69,-99.99,,,-99.99,,2013-10-03 17:22:00,
2013-10-03 13:42:00,77.0,67.0,30.10,NW,312,2.0,-999.0,72,-99.99,,,-99.99,,2013-10-03 17:42:00,
2013-10-03 13:52:00,77.0,68.0,30.10,WNW,292,4.0,-999.0,73,-99.99,,,-99.99,,2013-10-03 17:52:00,
2013-10-03 14:12:00,76.0,67.0,30.09,WNW,292,4.0,-999.0,74,-99.99,,,-99.99,,2013-10-03 18:12:00,
2013-10-03 14:22:00,75.0,69.0,30.09,West,281,5.0,-999.0,81,-99.99,,,-99.99,,2013-10-03 18:22:00,
2013-10-03 14:52:00,73.0,70.0,30.09,West,267,3.0,-999.0,89,-99.99,,,-99.99,,2013-10-03 18:52:00,
2013-10-03 15:11:00,73.0,70.0,30.08,West,267,4.0,-999.0,89,-99.99,,,-99.99,,2013-10-03 19:11:00,
2013-10-03 15:22:00,75.0,69.0,30.08,West,267,2.0,-999.0,83,-99.99,,,-99.99,,2013-10-03 19:22:00,
2013-10-03 15:32:00,75.0,69.0,30.08,West,267,2.0,-999.0,83,-99.99,,,-99.99,,2013-10-03 19:32:00,
2013-10-03 15:52:00,76.0,70.0,30.08,West,267,3.0,-999.0,81,-99.99,,,-99.99,,2013-10-03 19:52:00,
2013-10-03 16:12:00,76.0,70.0,30.07,West,267,2.0,-999.0,82,-99.99,,,-99.99,,2013-10-03 20:12:00,
2013-10-03 16:22:00,78.0,69.0,30.07,West,267,3.0,-999.0,74,-99.99,,,-99.99,,2013-10-03 20:22:00,
2013-10-03 16:42:00,77.0,68.0,30.06,West,267,1.0,-999.0,75,-99.99,,,-99.99,,2013-10-03 20:42:00,
2013-10-03 16:52:00,77.0,69.0,30.06,West,267,1.0,-999.0,77,-99.99,,,-99.99,,2013-10-03 20:52:00,
2013-10-03 17:12:00,78.0,70.0,30.06,West,268,2.0,-999.0,76,-99.99,,,-99.99,,2013-10-03 21:12:00,
2013-10-03 17:21:00,78.0,68.0,30.06,West,268,2.0,-999.0,72,-99.99,,,-99.99,,2013-10-03 21:21:00,
2013-10-03 17:54:00,78.0,67.0,30.07,West,264,1.0,-999.0,70,-99.99,,,-99.99,,2013-10-03 21:54:00,
2013-10-03 18:13:00,78.0,67.0,30.07,West,264,0.0,-999.0,70,-99.99,,,-99.99,,2013-10-03 22:13:00,
2013-10-03 18:23:00,77.0,67.0,30.07,West,264,0.0,-999.0,71,-99.99,,,-99.99,,2013-10-03 22:23:00,
2013-10-03 18:43:00,77.0,68.0,30.06,West,264,0.0,-999.0,73,-99.99,,,-99.99,,2013-10-03 22:43:00,
2013-10-03 18:54:00,77.0,68.0,30.06,West,262,0.0,-999.0,75,-99.99,,,-99.99,,2013-10-03 22:54:00,
2013-10-03 19:12:00,76.0,68.0,30.06,West,262,0.0,-999.0,76,-99.99,,,-99.99,,2013-10-03 23:12:00,
2013-10-03 19:22:00,75.0,68.0,30.06,West,262,0.0,-999.0,79,-99.99,,,-99.99,,2013-10-03 23:22:00,
2013-10-03 19:43:00,73.0,68.0,30.06,West,262,0.0,-999.0,83,-99.99,,,-99.99,,2013-10-03 23:43:00,
2013-10-03 19:52:00,72.0,67.0,30.06,West,262,0.0,-999.0,84,-99.99,,,-99.99,,2013-10-03 23:52:00,
2013-10-03 20:12:00,72.0,67.0,30.06,West,262,0.0,-999.0,85,-99.99,,,-99.99,,2013-10-04 00:12:00,
2013-10-03 20:22:00,71.0,67.0,30.07,West,262,0.0,-999.0,87,-99.99,,,-99.99,,2013-10-04 00:22:00,
2013-10-03 20:42:00,70.0,66.0,30.07,West,262,0.0,-999.0,88,-99.99,,,-99.99,,2013-10-04 00:42:00,
2013-10-03 20:52:00,69.0,66.0,30.07,West,262,0.0,-999.0,89,-99.99,,,-99.99,,2013-10-04 00:52:00,
2013-10-03 21:12:00,69.0,66.0,30.07,West,262,0.0,-999.0,90,-99.99,,,-99.99,,2013-10-04 01:12:00,
2013-10-03 21:22:00,68.0,65.0,30.07,West,262,0.0,-999.0,90,-99.99,,,-99.99,,2013-10-04 01:22:00,
2013-10-03 21:42:00,68.0,65.0,30.07,West,262,0.0,-999.0,91,-99.99,,,-99.99,,2013-10-04 01:42:00,
2013-10-03 21:52:00,67.0,65.0,30.07,West,262,0.0,-999.0,92,-99.99,,,-99.99,,2013-10-04 01:52:00,
2013-10-03 22:22:00,66.0,64.0,30.08,West,262,0.0,-999.0,93,-99.99,,,-99.99,,2013-10-04 02:22:00,
2013-10-03 22:43:00,66.0,64.0,30.09,West,262,0.0,-999.0,93,-99.99,,,-99.99,,2013-10-04 02:43:00,
2013-10-03 22:52:00,65.0,63.0,30.09,West,262,0.0,-999.0,93,-99.99,,,-99.99,,2013-10-04 02:52:00,
2013-10-03 23:22:00,65.0,63.0,30.09,West,262,0.0,-999.0,94,-99.99,,,-99.99,,2013-10-04 03:22:00,
2013-10-03 23:44:00,66.0,65.0,30.10,West,262,0.0,-999.0,95,-99.99,,,-99.99,,2013-10-04 03:44:00,
2013-10-03 23:58:00,65.0,63.0,30.10,West,262,0.0,-999.0,94,-99.99,,,-99.99,,2013-10-04 03:58:00,